• In Russia
  • List of Countries
  • For 7 days
  • Water Temperature
  • Satellite Maps
  • Weather Map
  • Weather Widgets
  • user-avatar
    Login

    Hourly Weather Kitzbuhel

    Today, 24 September, Monday

    Time Temperature Precipitation Wind Pressure Humidity
    00:00 +12°C° 3 mm 4 mps 676 mmHg 96%
    01:00 +10°C° 3 mm 4 mps 677 mmHg 97%
    02:00 +8°C° 0.9 mm 4 mps 677 mmHg 97%
    03:00 +7°C° 0.9 mm 4 mps 678 mmHg 97%
    04:00 +7°C° 0.9 mm 3 mps 679 mmHg 97%
    05:00 +7°C° 0.6 mm 3 mps 679 mmHg 96%
    06:00 +5°C° 0.6 mm 3 mps 680 mmHg 96%
    07:00 +5°C° 0.6 mm 3 mps 681 mmHg 95%
    08:00 +5°C° 0.2 mm 3 mps 681 mmHg 92%
    09:00 +5°C° 0.2 mm 3 mps 682 mmHg 89%
    10:00 +7°C° 0.2 mm 3 mps 683 mmHg 86%
    11:00 +7°C° 0.1 mm 3 mps 683 mmHg 82%
    12:00 +8°C° 0.1 mm 3 mps 684 mmHg 77%
    13:00 +8°C° 0.1 mm 3 mps 684 mmHg 73%
    14:00 +8°C° 0.1 mm 3 mps 684 mmHg 71%
    15:00 +8°C° 0.1 mm 3 mps 684 mmHg 70%
    16:00 +8°C° 0.1 mm 3 mps 684 mmHg 68%
    17:00 +7°C° 0 mm 2 mps 684 mmHg 75%
    18:00 +5°C° 0 mm 2 mps 685 mmHg 82%
    19:00 +4°C° 0 mm 2 mps 685 mmHg 88%
    20:00 +3°C° 0 mm 2 mps 685 mmHg 89%
    21:00 +3°C° 0 mm 2 mps 686 mmHg 89%
    22:00 +3°C° 0 mm 2 mps 686 mmHg 90%
    23:00 +2°C° 0 mm 2 mps 686 mmHg 90%

    Tomorrow, 25 September, Tuesday

    Time Temperature Precipitation Wind Pressure Humidity
    00:00 +2°C° 0 mm 2 mps 687 mmHg 90%
    01:00 +2°C° 0 mm 2 mps 687 mmHg 90%
    02:00 +3°C° 0 mm 1 mps 687 mmHg 90%
    03:00 +3°C° 0 mm 1 mps 687 mmHg 89%
    04:00 +2°C° 0 mm 1 mps 687 mmHg 89%
    05:00 +3°C° 0 mm 1 mps 687 mmHg 87%
    06:00 +3°C° 0 mm 1 mps 687 mmHg 85%
    07:00 +4°C° 0 mm 1 mps 688 mmHg 83%
    08:00 +6°C° 0 mm 1 mps 688 mmHg 74%
    09:00 +7°C° 0 mm 2 mps 688 mmHg 65%
    10:00 +8°C° 0 mm 2 mps 689 mmHg 56%
    11:00 +9°C° 0 mm 2 mps 688 mmHg 52%
    12:00 +10°C° 0 mm 2 mps 688 mmHg 48%
    13:00 +12°C° 0 mm 2 mps 688 mmHg 45%
    14:00 +12°C° 0 mm 2 mps 688 mmHg 47%
    15:00 +12°C° 0 mm 2 mps 688 mmHg 49%
    16:00 +10°C° 0 mm 2 mps 687 mmHg 51%
    17:00 +8°C° 0 mm 2 mps 687 mmHg 61%
    18:00 +7°C° 0 mm 1 mps 687 mmHg 71%
    19:00 +4°C° 0 mm 1 mps 687 mmHg 82%
    20:00 +4°C° 0 mm 1 mps 688 mmHg 81%
    21:00 +4°C° 0 mm 1 mps 688 mmHg 80%
    22:00 +3°C° 0 mm 1 mps 688 mmHg 79%
    23:00 +3°C° 0 mm 1 mps 688 mmHg 76%

    Day after tomorrow, 26 September, Wednesday

    Time Temperature Precipitation Wind Pressure Humidity
    00:00 +3°C° 0 mm 1 mps 688 mmHg 73%
    01:00 +3°C° 0 mm 1 mps 688 mmHg 70%
    02:00 +4°C° 0 mm 1 mps 688 mmHg 68%
    03:00 +4°C° 0 mm 1 mps 688 mmHg 66%
    04:00 +4°C° 0 mm 1 mps 687 mmHg 64%
    05:00 +4°C° 0 mm 1 mps 687 mmHg 61%
    06:00 +5°C° 0 mm 1 mps 688 mmHg 58%
    07:00 +6°C° 0 mm 1 mps 688 mmHg 55%
    08:00 +9°C° 0 mm 1 mps 688 mmHg 48%
    09:00 +13°C° 0 mm 1 mps 689 mmHg 40%
    10:00 +15°C° 0 mm 0 mps 689 mmHg 33%
    11:00 +18°C° 0 mm 1 mps 689 mmHg 33%
    12:00 +19°C° 0 mm 1 mps 689 mmHg 33%
    13:00 +20°C° 0 mm 1 mps 689 mmHg 33%
    14:00 +19°C° 0 mm 1 mps 688 mmHg 38%
    15:00 +19°C° 0 mm 1 mps 688 mmHg 43%
    16:00 +18°C° 0 mm 1 mps 688 mmHg 49%
    17:00 +14°C° 0 mm 1 mps 687 mmHg 59%
    18:00 +12°C° 0 mm 1 mps 687 mmHg 69%
    19:00 +9°C° 0 mm 1 mps 686 mmHg 79%
    20:00 +9°C° 0 mm 1 mps 687 mmHg 76%
    21:00 +9°C° 0 mm 1 mps 687 mmHg 73%
    22:00 +9°C° 0 mm 1 mps 687 mmHg 70%
    23:00 +9°C° 0 mm 1 mps 687 mmHg 66%

    27 September, Thursday

    Time Temperature Precipitation Wind Pressure Humidity
    00:00 +9°C° 0 mm 1 mps 687 mmHg 62%
    01:00 +8°C° 0 mm 1 mps 686 mmHg 58%
    02:00 +8°C° 0 mm 1 mps 686 mmHg 56%
    03:00 +8°C° 0 mm 1 mps 686 mmHg 54%
    04:00 +8°C° 0 mm 1 mps 686 mmHg 52%
    05:00 +9°C° 0 mm 1 mps 686 mmHg 52%
    06:00 +9°C° 0 mm 1 mps 686 mmHg 52%
    07:00 +9°C° 0 mm 1 mps 686 mmHg 52%
    08:00 +13°C° 0 mm 1 mps 686 mmHg 47%
    09:00 +16°C° 0 mm 1 mps 687 mmHg 42%
    10:00 +18°C° 0 mm 0 mps 687 mmHg 37%
    11:00 +21°C° 0 mm 1 mps 687 mmHg 37%
    12:00 +22°C° 0 mm 1 mps 687 mmHg 36%
    13:00 +23°C° 0 mm 1 mps 686 mmHg 35%
    14:00 +22°C° 0 mm 1 mps 686 mmHg 40%
    15:00 +21°C° 0 mm 1 mps 685 mmHg 46%
    16:00 +21°C° 0 mm 1 mps 684 mmHg 52%
    17:00 +18°C° 0 mm 1 mps 684 mmHg 62%
    18:00 +14°C° 0 mm 1 mps 683 mmHg 72%
    19:00 +11°C° 0 mm 1 mps 682 mmHg 82%
    20:00 +11°C° 0 mm 1 mps 682 mmHg 81%
    21:00 +11°C° 0 mm 1 mps 682 mmHg 79%
    22:00 +10°C° 0 mm 1 mps 682 mmHg 78%
    23:00 +10°C° 0 mm 1 mps 682 mmHg 78%

    28 September, Friday

    Time Temperature Precipitation Wind Pressure Humidity
    00:00 +10°C° 0 mm 1 mps 682 mmHg 77%
    01:00 +10°C° 0 mm 1 mps 681 mmHg 77%
    02:00 +10°C° 0 mm 1 mps 681 mmHg 76%
    03:00 +9°C° 0 mm 1 mps 681 mmHg 76%
    04:00 +9°C° 0 mm 1 mps 680 mmHg 76%
    05:00 +10°C° 0 mm 1 mps 680 mmHg 75%
    06:00 +10°C° 0 mm 1 mps 680 mmHg 74%
    07:00 +10°C° 0 mm 1 mps 680 mmHg 72%
    08:00 +13°C° 0 mm 1 mps 681 mmHg 65%
    09:00 +16°C° 0 mm 1 mps 681 mmHg 58%
    10:00 +19°C° 0 mm 1 mps 682 mmHg 51%
    11:00 +20°C° 0 mm 1 mps 681 mmHg 50%
    12:00 +21°C° 0 mm 1 mps 681 mmHg 49%
    13:00 +21°C° 0 mm 1 mps 681 mmHg 48%
    14:00 +21°C° 0 mm 1 mps 680 mmHg 52%
    15:00 +20°C° 0 mm 1 mps 680 mmHg 57%
    16:00 +19°C° 0 mm 2 mps 679 mmHg 61%
    17:00 +16°C° 0 mm 1 mps 679 mmHg 72%
    18:00 +14°C° 0 mm 1 mps 679 mmHg 82%
    19:00 +10°C° 0 mm 0 mps 679 mmHg 93%
    20:00 +10°C° 0 mm 0 mps 679 mmHg 94%
    21:00 +9°C° 0 mm 0 mps 679 mmHg 94%
    22:00 +9°C° 0 mm 0 mps 679 mmHg 95%
    23:00 +9°C° 0 mm 0 mps 679 mmHg 95%

    29 September, Saturday

    Time Temperature Precipitation Wind Pressure Humidity
    00:00 +9°C° 0 mm 0 mps 679 mmHg 95%
    01:00 +9°C° 0 mm 0 mps 679 mmHg 95%
    02:00 +8°C° 0 mm 0 mps 679 mmHg 96%
    03:00 +8°C° 0 mm 0 mps 679 mmHg 96%
    04:00 +8°C° 0 mm 0 mps 679 mmHg 96%
    05:00 +8°C° 0 mm 0 mps 679 mmHg 96%
    06:00 +10°C° 0 mm 1 mps 680 mmHg 95%
    07:00 +10°C° 0 mm 1 mps 680 mmHg 94%
    08:00 +12°C° 0 mm 1 mps 680 mmHg 87%
    09:00 +14°C° 0 mm 1 mps 681 mmHg 79%
    10:00 +15°C° 0 mm 2 mps 681 mmHg 72%
    11:00 +16°C° 0 mm 2 mps 681 mmHg 68%
    12:00 +17°C° 0 mm 2 mps 681 mmHg 64%
    13:00 +18°C° 0 mm 2 mps 681 mmHg 60%
    14:00 +17°C° 0 mm 2 mps 681 mmHg 62%
    15:00 +17°C° 0 mm 2 mps 680 mmHg 64%
    16:00 +17°C° 0 mm 2 mps 680 mmHg 66%
    17:00 +15°C° 0 mm 2 mps 680 mmHg 73%
    18:00 +13°C° 0 mm 2 mps 680 mmHg 81%
    19:00 +11°C° 0 mm 1 mps 680 mmHg 88%
    20:00 +10°C° 0 mm 2 mps 680 mmHg 88%
    21:00 +9°C° 0 mm 2 mps 679 mmHg 88%
    22:00 +9°C° 0 mm 2 mps 679 mmHg 87%
    23:00 +8°C° 0 mm 2 mps 679 mmHg 87%
    Show more

    3.3.7123123